#timestamp,LO_Frequency,Hit,StdDev 
1507971615.3,286046997.6,N
1507971635.2,286047001.1,N
1507971655.9,286046997.1,N
1507971675.7,286046997.2,N
1507971695.5,286046995.7,N
1507971715.4,286046996.8,N
1507971735.2,286046994.7,N
1507971755.0,286046997.9,N
1507971755.9,286046997.9,N
1507971775.8,286046999.6,N
1507971795.6,286046997.2,N
1507971815.4,286046997.8,N
1507971835.3,286046991.8,N
1507971855.1,286046991.0,N
1507971875.8,286046996.1,N
1507971895.7,286046998.0,N
1507971915.5,286046996.8,N
1507971935.3,286046998.0,N
1507971955.2,286046997.4,N
1507971975.9,286046996.6,N
1507971995.7,286046996.8,N
1507972015.6,286046997.3,N
1507972035.4,286046993.4,N
1507972055.2,286046998.0,N
1507972075.0,286046995.8,N
1507972076.0,286046995.8,N
1507972095.8,286046996.2,N
1507972115.6,286046993.8,N
1507972135.4,286046994.5,N
1507972155.3,286046995.5,N
1507972175.1,286046994.3,N
1507972195.8,286046992.3,Y
1507972215.7,286046999.6,P
1507972235.5,286046999.6,N
1507972255.3,286047002.6,N
1507972275.2,286047004.4,N
1507972295.9,286047007.3,N
1507972315.7,286047005.0,N
1507972335.6,286047005.2,N
1507972355.4,286047001.3,N
1507972375.2,286047000.4,N
1507972395.1,286046999.4,N
1507972396.0,286046999.4,N
1507972415.8,286047001.1,N
1507972435.6,286046999.1,N
1507972455.5,286046997.6,N
1507972475.3,286046996.1,N
1507972495.1,286046997.0,N
1507972515.8,286046994.8,N
1507972535.7,286046990.5,N
1507972555.5,286046988.3,N
1507972575.3,286046989.2,N
1507972595.2,286046988.5,N
1507972615.9,286046985.3,N
1507972635.7,286046988.3,N
1507972655.6,286046986.1,N
1507972675.4,286046980.9,Y
1507972695.2,286046980.1,P
1507972715.1,286046981.1,N
1507972716.0,286046981.1,N
1507972735.8,286046984.7,N
1507972755.6,286046986.3,N
1507972775.5,286046986.8,N
1507972795.3,286046984.8,N
1507972815.1,286046986.2,N
1507972835.9,286046989.0,N
1507972855.7,286046995.5,N
1507972875.5,286046994.9,N
1507972895.4,286046995.8,N
1507972915.2,286046993.6,N
1507972935.0,286046997.1,N
1507972935.9,286046997.1,N
1507972955.8,286046995.7,N
1507972975.6,286046993.6,N
1507972995.4,286046991.9,N
1507973015.2,286046990.5,N
1507973035.1,286046991.3,N
1507973036.0,286046991.3,N
1507973055.8,286046992.3,N
1507973075.6,286046994.1,N
1507973095.5,286046999.5,N
1507973115.3,286046998.2,N
1507973135.1,286046996.2,N
1507973155.9,286046988.5,N
1507973175.7,286046985.9,N
1507973195.5,286046982.8,Y
1507973215.4,286046992.9,P
1507973235.2,286046995.0,P
1507973255.0,286046997.6,N
1507973255.9,286046997.6,N
1507973275.8,286046996.3,N
1507973295.6,286046994.5,N
1507973315.4,286046991.5,Y
1507973335.3,286046992.6,P
1507973355.1,286046987.7,P
1507973356.0,286046987.7,P
1507973375.8,286046988.3,Y
1507973395.7,286046994.8,P
1507973415.5,286046988.2,P
1507973435.3,286046989.0,P
1507973455.2,286046992.4,N
1507973475.9,286046989.1,Y
1507973495.7,286047003.3,P
1507973515.6,286047011.9,N
1507973535.4,286047013.2,N
1507973555.2,286047015.6,N
1507973575.1,286047016.3,N
1507973576.0,286047016.3,N
1507973595.8,286047017.1,N
1507973615.6,286047019.9,N
1507973635.5,286047020.5,N
1507973655.3,286047024.8,N
1507973675.1,286047021.0,N
1507973695.9,286047022.6,N
1507973715.7,286047022.7,N
1507973735.5,286047020.8,N
1507973755.3,286047020.5,N
1507973775.2,286047020.9,N
1507973795.0,286047022.1,N
1507973795.9,286047022.1,N
1507973815.7,286047022.7,N
1507973835.6,286047025.0,Y
1507973855.4,286047007.0,P
1507973875.2,286047007.9,N
1507973895.1,286047012.5,N
1507973896.0,286047012.5,Y
1507973915.8,286047000.7,P
1507973935.7,286047001.0,N
1507973955.5,286046997.8,N
1507973975.3,286046998.0,N
1507973995.1,286046996.6,N
1507974015.9,286047002.4,N
1507974035.7,286047004.9,N
1507974055.5,286047001.8,N
1507974075.4,286046996.6,N
1507974095.2,286046999.2,N
1507974115.0,286046995.6,N
1507974115.9,286046995.6,N
1507974135.8,286046996.2,N
1507974155.6,286046997.9,N
1507974175.4,286046993.1,N
1507974195.3,286046984.1,Y
1507974215.1,286046987.4,P
1507974235.8,286046987.6,N
1507974255.7,286046992.8,N
1507974275.5,286046991.4,N
1507974295.3,286046993.2,N
1507974315.2,286046992.8,N
1507974335.9,286046991.6,N
1507974355.7,286046992.3,N
1507974375.6,286046994.4,N
1507974395.4,286046993.3,N
1507974415.2,286046995.7,N
1507974435.0,286046994.9,N
1507974436.0,286046994.9,N
1507974455.8,286046995.2,N
1507974475.6,286046996.0,N
1507974495.4,286046997.9,N
1507974515.3,286046999.2,N
1507974535.1,286047000.4,N
1507974555.8,286047000.5,N
1507974575.7,286046996.8,N
1507974595.5,286046996.9,N
1507974615.3,286047001.2,N
1507974635.2,286046997.7,N
1507974655.9,286046997.1,N
1507974675.7,286046997.6,N
1507974695.6,286046997.8,N
1507974715.4,286046999.2,N
1507974735.2,286046996.5,N
1507974755.0,286046995.4,N
1507974755.9,286046995.4,N
1507974775.8,286046992.5,N
1507974795.6,286046992.7,N
1507974815.4,286046990.3,Y
1507974835.3,286046995.1,P
1507974855.1,286046993.5,P
1507974875.8,286046995.4,P
1507974895.7,286047001.0,N
1507974915.5,286047002.5,N
1507974935.3,286046998.7,N
1507974955.2,286046997.8,N
1507974975.9,286046996.7,N
1507974995.7,286046997.6,N
1507975015.6,286046995.8,N
1507975035.4,286046995.2,N
1507975055.2,286046994.1,N
1507975075.1,286046991.7,Y
1507975076.0,286046991.7,P
1507975095.8,286046993.5,N
1507975115.6,286046995.4,N
1507975135.5,286046996.1,N
1507975155.3,286047000.7,N
1507975175.1,286046999.8,N
1507975195.9,286046997.2,N
